Weather Roundup
Issued by NWS Chicago, IL

Home | Current Version | Previous Version | Text Only | Print | Product List | Glossary Off
Versions: 1 2 3 4 5 6 7 8 9 10 11 12 13 14 15 16 17 18 19 20 21 22 23 24 25 26 27 28 29 30 31 32 33 34 35 36 37 38 39 40 41 42 43 44 45 46 47 48 49 50

321
NZUS59 KLOT 191005
HRRLOT

CHICAGO AREA WEATHER ROUNDUP
NATIONAL WEATHER SERVICE CHICAGO/ROMEOVILLE IL
500 AM CDT THU OCT 19 2017

NOTE: "FAIR" INDICATES FEW OR NO CLOUDS BELOW 12,000 FEET WITH NO
SIGNIFICANT WEATHER AND/OR OBSTRUCTIONS TO VISIBILITY.

* THESE STATIONS ARE NOT UNDER NWS QUALITY CONTROL. THEY ALSO MAY NOT
  REPORT WEATHER SUCH AS PRECIPITATION OR FOG.

ILZ005-006-012>014-019>023-191100-
NORTHEAST ILLINOIS

CITY           SKY/WX    TMP DP  RH WIND       PRES   REMARKS
OHARE          PTCLDY    54  46  74 W7        30.06R
MIDWAY         PTCLDY    55  48  77 VRB6      30.07R
AURORA         CLOUDY    48  46  93 W3        30.08R
LANSING*       CLEAR     51  48  89 SW7       30.08R
JOLIET*        CLEAR     53  49  86 CALM      30.08R
WAUKEGAN       MOCLDY    54  45  71 W3        30.05R
DUPAGE AIRPORT PTCLDY    51  47  86 W5        30.06R
WHEELING       CLOUDY    56  47  71 W5        30.08R
KANKAKEE*      CLEAR     51  46  81 SW3       30.09S
MORRIS*        CLEAR     52  46  82 W6        30.06R
NORTHERLY ISL    N/A     57  46  66 W7          N/A
$$

WIZ051-052-058>065-066-070>072-191100-
SOUTHEAST WISCONSIN

CITY           SKY/WX    TMP DP  RH WIND       PRES   REMARKS
MILWAUKEE      CLOUDY    58  34  40 NW9       30.04R
KENOSHA*       CLOUDY    51  43  74 W5        30.06R
RACINE*        PTCLDY    54  45  71 W5        30.06R
WAUKESHA       CLOUDY    50  36  57 W10       30.06R
WEST BEND      CLOUDY    52  27  37 W8        30.04R
$$

INZ001>003-010>013-019-020-191100-
NORTHWEST INDIANA

CITY           SKY/WX    TMP DP  RH WIND       PRES   REMARKS
GARY*          CLEAR     54  46  76 SW9       30.07S
MICHIGAN CITY* NOT AVBL
RENSSELAER*    NOT AVBL
VALPARAISO     CLEAR     49  45  86 S3        30.09R
$$

LMZ740>746-191100-
SOUTHERN LAKE MICHIGAN

STATION/POSITION TIME  SKY/WX   TEMP WIND        PRES    VSBY
                                AIR  DIR/SP/G
                 (UTC)          (F)  (DEG/KT/KT) (MB)    (MI)
HARRISON CRIB    0940            60  260/ 18/ 21   N/A
BURNHAM HARBOR   1000            57  260/  5/ 10   N/A
CALUMET HARBOR   0900            56  210/  6/ 10 1017.0
BURNS HARBOR     0940            58  210/ 14/ 22 1018.3S
MICHIGAN CITY    0940            55  180/ 10/ 10   N/A
$$

ABBREVIATIONS USED IN REMARKS
   TC - TEMPERATURE IN CELSIUS
  WCI - WIND CHILL INDEX
   HX - HEAT INDEX
  VSB - VISIBILITY
$$




USA.gov is the U.S. government's official web portal to all federal, state and local government web resources and services.